Location: Grand Lay
(47.3253°N, 0.9468°E)
Time: 23:54:22
(UTC+00:00)

Cosmos 2341 Rocket - Pass Details

Date: 18 January 2026
Orbit: 967 x 1004 km, 82.9° (Epoch: 15 February)

Event Time Altitude Azimuth Distance (km) Brightness Sun altitude
Rises 06:19:31 0° 187° (S) 3,715 7.2 -12.8°
Reaches altitude 10° 06:22:02 10° 187° (S) 2,770 6.5 -12.4°
Maximum altitude 06:28:26 89° 277° (W) 1,011 4.1 -11.4°
Drops below altitude 10° 06:34:51 10° 9° (N) 2,783 6.3 -10.3°
Sets 06:37:23 0° 9° (N) 3,733 6.9 -9.9°
